User: anonymous   Login
Location: Bemmer
(51.5498°N, 5.6249°E)
Time: 06:35:45
(UTC+00:00)
Language:

Cosmos 2218 Rocket - Orbit

View from above orbital plane
View from above orbital plane
View from above satellite
View from above satellite

Ground track
Ground track

The orbit data is extracted from the following two-line orbital elements,

1 22208U 92073B   21134.48303446  .00000042  00000-0  27502-4 0  9994
2 22208  82.9216  41.6154 0034861  19.3004 154.0370 13.75161675431903
Epoch (UTC): 14 May 2021 11:35:34
Eccentricity: 0.0034861
inclination: 82.9216°
perigee height: 955 km
apogee height: 1007 km
right ascension of ascending node: 41.6154°
argument of perigee: 19.3004°
revolutions per day: 13.75161675
mean anomaly at epoch: 154.0370°
orbit number at epoch: 43190

The dashed part of the orbit path shows where the satellite is in the earth's shadow,  

DLR